Regional Weather Roundup
Issued by NWS Memphis, TN

Home | Current Version | Previous Version | Text Only | Print | Product List | Glossary On
Versions: 1 2 3 4 5 6 7 8 9 10 11 12 13 14 15 16 17 18 19 20 21 22 23 24 25 26 27 28 29 30 31 32 33 34 35 36 37 38 39 40 41 42 43 44 45 46 47 48 49 50
000
ASUS44 KMEG 242210
RWRMEG
MEMPHIS CWA HOURLY WEATHER ROUNDUP
NATIONAL WEATHER SERVICE MEMPHIS TN
500 PM CDT SUN JUL 24 2016

...WEST TENNESSEE...

CITY           SKY/WX    TMP DP  RH WIND       PRES   REMARKS
MEMPHIS INTL   MOSUNNY   91  75  59 CALM      29.94S HX 101
NWS MEMPHIS      N/A     90 N/A N/A MISG        N/A
JACKSON        PTSUNNY   93  75  55 SW8       29.95S HX 104
LEXINGTON      PTSUNNY   82  73  74 S12       29.98R
DYERSBURG      SUNNY     91  75  59 MISG      29.94S HX 102
UNION CITY     SUNNY     90  75  62 CALM      29.93F HX 100
PARIS          SUNNY     91  73  55 SW3       29.97S HX 100


...EASTERN ARKANSAS...

CITY           SKY/WX    TMP DP  RH WIND       PRES   REMARKS
JONESBORO      TSTM      80  73  79 N12G25    29.94R
WEST MEMPHIS   CLOUDY    84  75  74 CALM      29.93S HX  92
BATESVILLE     PTSUNNY   82  77  83 SW3       29.94R THUNDER HX  91
NEWPORT        MOSUNNY   94  78  59 SE8       29.93F HX 109
WALNUT RIDGE   CLOUDY    91  75  59 E6        29.91S HX 102
BLYTHEVILLE    SUNNY     90  75  61 E3        29.94S HX 100
SEARCY         SUNNY     91  80  70 SE6       29.95R HX 109
STUTTGART      CLOUDY    90  73  58 SE6       29.94R HX  98
PINE BLUFF     MOSUNNY   92  73  53 W3        29.93S HX 100
MONTICELLO     TSTM      83  76  79 VRB7      29.95R VSB 1   HX  91


...NORTH MISSISSIPPI...

CITY           SKY/WX    TMP DP  RH WIND       PRES   REMARKS
TUPELO         MOSUNNY   88  73  61 N8        29.94F HX  95
OXFORD         MOSUNNY   75  73  94 CALM      29.97F
BATESVILLE     CLOUDY    80  73  78 CALM      29.95F
OLIVE BRANCH   MOSUNNY  N/A N/A N/A S5        29.93F
TUNICA         CLOUDY    86  77  74 NE3       29.94F HX  97
CLARKSDALE     SUNNY     91  82  75 CALM      29.93F HX 114
CORINTH        MOSUNNY   82  73  74 W3        29.96S
GREENWOOD      CLOUDY    93  72  50 VRB5      29.93S HX 101
COLUMBUS       PTSUNNY   91  81  71 NW7       29.93S HX 111
GOLDEN TRIANGL PTSUNNY   91  72  52 S12       29.93S HX  98


...SOUTHEAST MISSOURI...

CITY           SKY/WX    TMP DP  RH WIND       PRES   REMARKS
KENNETT        MOSUNNY   91  77  62 MISG      29.91F HX 105
WEST PLAINS    CLOUDY    93  73  52 VRB5      29.98F HX 102
POPLAR BLUFF   CLOUDY    88  77  69 S5        29.92F HX 100
CAPE GIRARDEAU SUNNY     92  73  53 CALM      29.92F HX 100


...NORTHWEST ALABAMA...

CITY           SKY/WX    TMP DP  RH WIND       PRES   REMARKS
MUSCLE SHOALS  TSTM      75  71  87 N7        29.99F FOG


...MIDDLE TENNESSEE...

CITY           SKY/WX    TMP DP  RH WIND       PRES   REMARKS
NASHVILLE      PTSUNNY   96  68  39 NE3       29.97F HX 101
CLARKSVILLE    MOSUNNY   92  74  55 VRB3      29.96F HX 101
COLUMBIA       PTSUNNY   93  73  52 SE5       29.96S HX 102


...WESTERN KENTUCKY...

CITY           SKY/WX    TMP DP  RH WIND       PRES   REMARKS
PADUCAH        PTSUNNY   92  76  59 S6        29.94F HX 104
FORT CAMPBELL  SUNNY     92  75  57 SW5       29.96F HX 102


...CENTRAL ARKANSAS...

CITY           SKY/WX    TMP DP  RH WIND       PRES   REMARKS
LITTLE ROCK    CLOUDY    95  76  53 SE6       29.93R HX 108


SKY/WX REPORTED AS FAIR MEANS FEW OR NO CLOUDS BELOW
12 THOUSAND FEET.




USA.gov is the U.S. government's official web portal to all federal, state and local government web resources and services.